Regional Weather Roundup
Issued by NWS Albany, NY

Home | Current Version | Previous Version | Text Only | Print | Product List | Glossary On
Versions: 1 2 3 4 5 6 7 8 9 10 11 12 13 14 15 16 17 18 19 20 21 22 23 24 25 26 27 28 29 30 31 32 33 34 35 36 37 38 39 40 41 42 43 44 45 46 47 48 49 50
000
ASUS41 KALY 011410
RWRALY

NEW YORK STATE HOURLY WEATHER ROUNDUP
NATIONAL WEATHER SERVICE ALBANY NY
1000 AM EDT TUE SEP 01 2015

NOTE: "FAIR" INDICATES FEW OR NO CLOUDS BELOW 12,000 FEET WITH NO
SIGNIFICANT WEATHER AND/OR NO OBSTRUCTIONS TO VISIBILITY.

NYZ032-033-038>043-046>054-057>066-NYZ062>081-011500-
EAST


CITY           SKY/WX    TMP DP  RH WIND       PRES   REMARKS
ALBANY         MOSUNNY   75  65  70 E3        30.08R
GLENS FALLS    SUNNY     72  64  76 CALM      30.08S
POUGHKEEPSIE   SUNNY     78  65  63 N9        30.07R
NEWBURGH       SUNNY     77  68  73 N8        30.09S
MONTGOMERY     SUNNY     76  67  73 N3        30.08R
WHITE PLAINS   SUNNY     79  63  57 N8        30.07R
ISLIP          SUNNY     80  65  59 NE12      30.04R
NEW YORK CITY  MOSUNNY   80  65  59 NE8       30.05R
CENTRAL PARK   SUNNY     81  64  56 NE6       30.08R
$$

NYZ005>009-017-018-044>046-055-056-011500-
CENTRAL


CITY           SKY/WX    TMP DP  RH WIND       PRES   REMARKS
FULTON         CLOUDY    70  68  93 CALM      30.09S FOG
SYRACUSE       CLOUDY    71  68  90 W5        30.09R FOG
ROME           CLOUDY    68  66  93 CALM      30.11R
ELMIRA         PTSUNNY   70  66  87 SW9       30.11S FOG
BINGHAMTON     SUNNY     70  66  87 CALM      30.13S
MONTICELLO     MOSUNNY   72  64  78 CALM      30.14R
$$

NYZ026>034-041>043-011500-
NORTH


CITY           SKY/WX    TMP DP  RH WIND       PRES   REMARKS
WATERTOWN      PTSUNNY   74  68  81 SW8       30.07S HAZE
FORT DRUM      NOT AVBL
MASSENA        MOSUNNY   69  64  84 W6        30.07S
SARANAC LAKE   CLOUDY    62  61  96 CALM      30.11S FOG
PLATTSBURGH    SUNNY     70  63  78 SE3       30.07F
$$

NYZ001>004-010>016-019>021-011500-
WEST


CITY           SKY/WX    TMP DP  RH WIND       PRES   REMARKS
NIAGARA FALLS  PTSUNNY   68  67  96 SW5       30.09S FOG
BUFFALO        PTSUNNY   74  67  78 SW10      30.10S
DUNKIRK        SUNNY     73  67  81 SW6       30.11S
JAMESTOWN      CLOUDY    64  63  94 CALM      30.16S VSB<1/4
WELLSVILLE     PTSUNNY   69  65  86 VRB3      30.18S FOG
ROCHESTER      CLOUDY    72  68  87 W6        30.10R FOG
PENN YAN       PTSUNNY   73  66  78 VRB3      30.12R
$$

             KEY
       WCI = WIND CHILL INDEX
       VSB = VISIBILITY
       HX  = HEAT INDEX
$$



USA.gov is the U.S. government's official web portal to all federal, state and local government web resources and services.